Volver al catálogo

STARLINK-31005

ActivoComunicacionesVLEO
NORAD 58486·PAYLOAD·🇺🇸 United States

Lanzado Dec 3, 2023 desde Cape Canaveral Space Force Station

Loading…

Próximos Pases (próximas 24 horas)

TLE

ActualizadoSource: CelesTrak SupGP

Época: Sep 14, 2026, 21:31 UTC

1 58486C 23186P   26257.89701389  .00051012  00000+0  18492-2 0  2579
2 58486  43.0002  75.2159 0001493 281.4649   9.4870 15.27526414    18

Sigue STARLINK-31005 en tiempo real con AllMySat

Download on the App Store